INTELSAT 904 (IS-904)

Last updated on Sat Aug 15 2026 00:02:57 GMT+0000 (Coordinated Universal Time)

1 27380U 02007A 26226.41910741 -.00000241 00000+0 00000+0 0 9990 2 27380 7.0618 68.4668 0004003 53.8625 319.8945 1.00269836 52357
UTC large
Height (km)
Speed (km/s)
/
Latitude / Longitude
Inclination (degrees)
Orbital Period (minutes)
Azimuth
Elevation
Range (km)
Doppler Factor

Next 0 passes for location: London (51.5072 / 0.1276)

No passes found over London.
INTELSAT 904 (IS-904)